Вернуться в каталог

STARLINK-5053

АктивенСвязьVLEO
NORAD 53913·PAYLOAD·🇺🇸 United States

Запущен Sep 24, 2022 с Cape Canaveral Space Force Station

Loading…

Ближайшие Пролёты (ближайшие 24 часа)

TLE

СвежийSource: CelesTrak SupGP

Эпоха: Sep 15, 2026, 02:05 UTC

1 53913C 22119AD  26258.08729167 -.00020013  00000+0 -12551-2 0  2580
2 53913  53.1585 183.2376 0001645  83.0394  62.3975 15.08842291    16

Отслеживайте STARLINK-5053 в реальном времени с AllMySat

Download on the App Store